This is the latest recevied weather packets stored in our database for station/object KG2V. If no packets are shown the sender has not sent any weather packets the latest 10 day(s).
| Time | Temp. | Humidity | Pressure | Rain* | Wind** | Luminosity | Snow |
|---|---|---|---|---|---|---|---|
| 1777547732 | 5.56° C | 95% | 1005.7 hPa | 0 mm | - | 45 W/m² | - |
| 1777547429 | 5.56° C | 95% | 1005.8 hPa | 0 mm | - | 42 W/m² | - |
| 1777547127 | 5° C | 95% | 1005.8 hPa | 0 mm | - | 36 W/m² | - |
| 1777546824 | 5.56° C | 95% | 1005.6 hPa | 0 mm | - | 28 W/m² | - |
| 1777546520 | 5.56° C | 95% | 1005.6 hPa | 0 mm | - | 23 W/m² | - |
| 1777546217 | 5.56° C | 95% | 1005.6 hPa | 0 mm | - | 19 W/m² | - |
| 1777545914 | 5.56° C | 95% | 1005.5 hPa | 0 mm | - | 16 W/m² | - |
| 1777545605 | 5.56° C | 95% | 1005.2 hPa | 0 mm | - | 14 W/m² | - |
| 1777545302 | 5.56° C | 95% | 1005.2 hPa | 0 mm | - | 10 W/m² | - |
| 1777544999 | 5.56° C | 95% | 1005.1 hPa | 0 mm | - | 9 W/m² | - |
| 1777544696 | 5.56° C | 96% | 1004.9 hPa | 0 mm | - | 6 W/m² | - |
| 1777544391 | 5.56° C | 95% | 1005 hPa | 0 mm | - | 4 W/m² | - |
| 1777544088 | 5.56° C | 96% | 1005 hPa | 0 mm | - | 2 W/m² | - |
| 1777543786 | 5.56° C | 95% | 1005 hPa | 0 mm | - | 1 W/m² | - |
| 1777543482 | 5.56° C | 95% | 1004.8 hPa | 0 mm | - | 1 W/m² | - |
| 1777543178 | 5.56° C | 95% | 1004.6 hPa | 0 mm | - | 0 W/m² | - |
| 1777542874 | 5.56° C | 95% | 1004.7 hPa | 0 mm | - | 0 W/m² | - |
| 1777542571 | 5.56° C | 95% | 1004.6 hPa | 0 mm | - | 0 W/m² | - |
| 1777542267 | 5.56° C | 95% | 1004.4 hPa | 0 mm | - | 0 W/m² | - |
| 1777541965 | 5.56° C | 95% | 1004.6 hPa | 0 mm | - | 0 W/m² | - |
| 1777541662 | 5.56° C | 95% | 1004.9 hPa | 0 mm | - | 0 W/m² | - |
| 1777541358 | 5.56° C | 95% | 1004.8 hPa | 0 mm | - | 0 W/m² | - |
| 1777541053 | 5.56° C | 95% | 1004.7 hPa | 0 mm | - | 0 W/m² | - |
| 1777540750 | 5.56° C | 95% | 1004.7 hPa | 0 mm | - | 0 W/m² | - |
| 1777540449 | 5.56° C | 95% | 1004.6 hPa | 0 mm | - | 0 W/m² | - |
* Rain latest hour (hover to see other rain measurements)
** Current wind speed in m/s (hover to see current wind gust speed)